This demonstration page uses our WeatherBlox Daily Observations layout. Learn more.

38.89511, -77.03637

Hourly Observations for November 12, 2019

Temp ( °F °C ) Dew Point ( °F °C ) Humidity (%) Winds ( mph kmh ) Pressure ( in mb ) Visibility ( mi km ) Precip ( " mm )
12:52 am 00:52 Cloudy 60 15.6 41 5 50 50 SSW 12 19 29.78 1009 10 16.0934 0 0
1:52 am 01:52 Cloudy 59 15 42 5.6 54 54 S 13 20 29.77 1008 10 16.0934 0 0
2:52 am 02:52 Cloudy 59 15 42 5.6 54 54 SSW 12 19 29.76 1008 10 16.0934 0 0
3:52 am 03:52 Cloudy with Light Rain 58 14.4 45 7.2 62 62 SW 9 15 29.77 1008 10 16.0934 0.001 0.001
4:52 am 04:52 Cloudy with Light Rain 54 12.2 48 8.9 80 80 SW 6 9 29.78 1009 10 16.0934 0.01 0.254
5:52 am 05:52 Cloudy with Light Rain 54 12.2 49 9.4 83 83 NW 12 19 29.82 1010 10 16.0934 0.02 0.508
6:05 am 06:05 Cloudy with Rain 53 11.7 49 9.4 86 86 W 13 20 29.83 1010 8 12.87472 0.02 0.508
6:18 am 06:18 Cloudy with Light Rain 53 11.7 48 8.9 83 83 WNW 15 24 29.83 1010 10 16.0934 0.04 1.016
6:52 am 06:52 Cloudy with Light Rain 51 10.6 45 7.2 80 80 NW 16 26 29.85 1011 10 16.0934 0.04 1.016
7:52 am 07:52 Cloudy with Light Rain 47 8.3 36 2.2 66 66 NW 15 24 29.89 1012 10 16.0934 0.001 0.001
8:52 am 08:52 Cloudy with Light Rain 44 6.7 32 0 63 63 NNW 18 30 29.95 1014 10 16.0934 0.001 0.001
9:52 am 09:52 Cloudy 43 6.1 30 -1.1 60 60 NNW 21 33 29.99 1016 10 16.0934 0.001 0.001
10:44 am 10:44 Cloudy with Light Rain 39 3.9 32 0 76 76 NNW 18 30 30.04 1017 10 16.0934 0.001 0.001
10:52 am 10:52 Cloudy with Light Rain 39 3.9 32 0 76 76 NNW 17 28 30.03 1017 10 16.0934 0.001 0.001
11:05 am 11:05 Cloudy with Light Rain 40 4.4 31 -0.6 70 70 NNW 8 13 30.03 1017 10 16.0934 0.001 0.001
11:52 am 11:52 Cloudy 42 5.6 27 -2.8 55 55 NW 22 35 30.02 1017 10 16.0934 0.001 0.001
12:52 pm 12:52 Cloudy 41 5 26 -3.3 55 55 NNW 14 22 30.01 1016 10 16.0934 0 0
1:52 pm 13:52 Mostly Cloudy 41 5 24 -4.4 51 51 NNW 15 24 30.01 1016 10 16.0934 0 0
2:52 pm 14:52 Mostly Cloudy 43 6.1 23 -5 45 45 N 21 33 30.01 1016 10 16.0934 0 0
3:52 pm 15:52 Mostly Cloudy 40 4.4 23 -5 51 51 NW 14 22 30.04 1017 10 16.0934 0 0
4:19 pm 16:19 Mostly Cloudy 41 5 23 -5 49 49 WNW 15 24 30.05 1018 10 16.0934 0 0
4:52 pm 16:52 Mostly Cloudy 39 3.9 23 -5 53 53 NNW 18 30 30.08 1019 10 16.0934 0 0
5:52 pm 17:52 Mostly Cloudy 37 2.8 21 -6.1 52 52 NNW 21 33 30.12 1020 10 16.0934 0 0
6:52 pm 18:52 Partly Cloudy 36 2.2 19 -7.2 50 50 NNW 18 30 30.16 1021 10 16.0934 0 0
7:52 pm 19:52 Partly Cloudy 35 1.7 19 -7.2 52 52 NW 17 28 30.19 1022 10 16.0934 0 0
8:52 pm 20:52 Mostly Clear 34 1.1 20 -6.7 56 56 NNW 16 26 30.23 1024 10 16.0934 0 0
9:52 pm 21:52 Mostly Clear 32 0 19 -7.2 59 59 NW 14 22 30.25 1024 10 16.0934 0 0
10:52 pm 22:52 Clear 32 0 14 -10 47 47 NW 14 22 30.27 1025 10 16.0934 0 0
11:52 pm 23:52 Clear 31 -0.6 13 -10.6 47 47 NNW 15 24 30.28 1025 10 16.0934 0 0

Powered by AerisWeather